DW0494 Weather Reports


time (UTC)temp
C
wind
direction
speed
KPH
gust
KPH
rain 1hr
cm
rain 24hr
cm
rain mn
cm
humidity
%
barometer
mb
20260504020903 8 28 0.0 4.8 0.00 0.10 0.00 69 1022.0
20260504014903 8 50 3.2 4.8 0.00 0.10 0.00 66 1022.0
20260504014405 8 61 3.2 3.2 0.00 0.10 0.00 65 1022.0
20260504013904 9 51 1.6 3.2 0.00 0.10 0.00 64 1022.0
20260504013405 9 47 1.6 3.2 0.00 0.10 0.00 64 1021.9
20260504012905 8 44 1.6 3.2 0.00 0.10 0.00 65 1021.9
20260504012405 8 44 1.6 3.2 0.00 0.10 0.00 65 1021.9
20260504011904 8 44 1.6 4.8 0.00 0.10 0.00 66 1021.9
20260504011403 8 52 1.6 4.8 0.00 0.10 0.00 66 1021.9
20260504010905 8 51 3.2 4.8 0.00 0.10 0.00 67 1021.8
20260504010404 8 57 1.6 3.2 0.00 0.10 0.00 67 1021.8
20260504005904 8 53 3.2 3.2 0.00 0.10 0.00 66 1021.7
20260504005404 8 47 3.2 3.2 0.00 0.10 0.00 66 1021.7
20260504004905 8 57 1.6 3.2 0.00 0.10 0.00 64 1021.7
20260504004403 9 56 1.6 3.2 0.00 0.10 0.00 63 1021.7
20260504003904 8 60 1.6 4.8 0.00 0.10 0.00 64 1021.7
20260504003405 8 57 3.2 4.8 0.00 0.10 0.00 64 1021.7
20260504002404 8 51 3.2 4.8 0.00 0.10 0.00 66 1021.7
20260504001905 8 52 3.2 4.8 0.00 0.10 0.00 66 1021.8
20260504001404 8 49 1.6 3.2 0.00 0.10 0.00 67 1021.8
20260504000404 9 68 0.0 1.6 0.00 0.10 0.00 66 1021.7
20260503235404 10 55 1.6 3.2 0.00 0.13 0.00 63 1021.8
20260503234904 10 57 1.6 3.2 0.00 0.13 0.00 64 1021.8
20260503234404 10 57 1.6 3.2 0.00 0.13 0.00 64 1021.7
20260503233905 9 47 1.6 3.2 0.00 0.13 0.00 64 1021.7
20260503233404 9 27 1.6 4.8 0.00 0.13 0.00 65 1021.7
20260503232404 9 17 3.2 4.8 0.00 0.13 0.00 65 1021.8
20260503231904 9 27 3.2 4.8 0.00 0.13 0.00 66 1021.8
20260503231403 9 21 3.2 4.8 0.00 0.13 0.00 66 1021.9
20260503225903 8 39 1.6 3.2 0.00 0.13 0.00 67 1022.0
20260503225403 8 32 0.0 1.6 0.00 0.13 0.00 67 1022.0
20260503224905 9 20 0.0 3.2 0.00 0.13 0.00 66 1021.9
20260503224405 9 20 0.0 3.2 0.00 0.13 0.00 65 1021.8
20260503223904 9 17 1.6 3.2 0.00 0.13 0.00 63 1021.8
20260503223404 9 9 1.6 3.2 0.00 0.13 0.00 62 1021.8
20260503222904 9 34 0.0 1.6 0.00 0.13 0.00 63 1021.7
20260503222405 9 39 0.0 1.6 0.00 0.15 0.00 63 1021.7
20260503221904 9 39 0.0 0.0 0.00 0.15 0.00 63 1021.7
20260503221403 9 39 0.0 1.6 0.00 0.15 0.00 62 1021.7
20260503215904 10 40 0.0 1.6 0.00 0.18 0.00 60 1021.7
20260503215404 10 40 0.0 1.6 0.00 0.18 0.00 61 1021.7
20260503214905 11 30 0.0 3.2 0.00 0.18 0.00 57 1021.6
20260503214404 11 30 1.6 3.2 0.00 0.18 0.00 55 1021.6
20260503213404 11 60 1.6 3.2 0.00 0.18 0.00 54 1021.6
20260503212903 11 46 1.6 3.2 0.00 0.18 0.00 55 1021.5
20260503212404 11 50 1.6 3.2 0.00 0.18 0.00 56 1021.6
20260503211904 11 56 1.6 3.2 0.00 0.18 0.00 56 1021.5
20260503210906 11 60 1.6 3.2 0.00 0.18 0.00 57 1021.5
20260503205405 11 40 1.6 3.2 0.00 0.18 0.18 55 1021.6
20260503204904 11 49 1.6 3.2 0.00 0.18 0.18 55 1021.6
20260503203903 11 77 1.6 3.2 0.00 0.18 0.18 57 1021.6
20260503203403 11 75 1.6 1.6 0.00 0.18 0.18 56 1021.7
20260503202406 11 67 0.0 3.2 0.00 0.18 0.18 58 1021.6
20260503201904 11 89 0.0 3.2 0.00 0.18 0.18 59 1021.5
20260503201404 11 50 0.0 8.0 0.00 0.18 0.18 59 1021.6
20260503200904 11 47 3.2 8.0 0.00 0.18 0.18 54 1021.6
20260503200404 11 46 1.6 4.8 0.00 0.18 0.18 56 1021.5
20260503195904 11 50 3.2 4.8 0.00 0.18 0.18 55 1021.6
20260503195404 11 40 1.6 4.8 0.00 0.18 0.18 57 1021.6
20260503194904 11 51 3.2 4.8 0.00 0.18 0.18 57 1021.5
20260503193404 11 58 1.6 3.2 0.00 0.18 0.18 57 1021.5
20260503191905 11 51 1.6 4.8 0.00 0.18 0.18 56 1021.5
20260503191404 11 50 1.6 4.8 0.00 0.18 0.18 56 1021.5
20260503190404 12 64 0.0 3.2 0.00 0.18 0.18 57 1021.5
20260503185405 12 53 1.6 4.8 0.00 0.18 0.18 55 1021.4
20260503184905 12 49 3.2 4.8 0.00 0.18 0.18 55 1021.4
20260503184403 12 97 0.0 3.2 0.00 0.18 0.18 56 1021.2
20260503183904 12 88 0.0 3.2 0.00 0.18 0.18 53 1021.2
20260503183404 12 39 0.0 3.2 0.00 0.18 0.18 55 1021.1
20260503182905 12 45 1.6 3.2 0.00 0.18 0.18 52 1021.1
20260503182406 12 77 0.0 1.6 0.00 0.18 0.18 52 1021.1
20260503181904 13 55 0.0 4.8 0.00 0.18 0.18 51 1020.9
20260503181405 13 34 0.0 8.0 0.00 0.18 0.18 50 1020.8
20260503180904 13 63 3.2 8.0 0.00 0.18 0.18 49 1020.7
20260503180404 13 46 3.2 9.7 0.00 0.18 0.18 49 1020.6
20260503175904 13 36 3.2 11.3 0.00 0.18 0.18 49 1020.6
20260503175405 13 40 3.2 12.9 0.00 0.18 0.18 49 1020.6
20260503174906 13 25 4.8 12.9 0.00 0.18 0.18 48 1020.6
20260503174404 13 41 4.8 11.3 0.00 0.18 0.18 48 1020.5
20260503172903 14 36 3.2 8.0 0.00 0.18 0.18 48 1020.4
20260503171904 14 43 4.8 8.0 0.00 0.18 0.18 46 1020.3
20260503171405 14 42 1.6 11.3 0.00 0.18 0.18 47 1020.3
20260503170904 15 38 3.2 11.3 0.00 0.18 0.18 46 1020.2
20260503170404 15 46 3.2 9.7 0.00 0.18 0.18 47 1020.1
20260503150905 17 313 1.6 11.3 0.00 0.18 0.18 39 1020.0
20260503131410 17 238 4.8 16.1 0.00 0.18 0.18 43 1020.6
20260503130904 17 253 4.8 16.1 0.00 0.18 0.18 44 1020.6
20260503130404 17 213 3.2 11.3 0.00 0.18 0.18 44 1020.6
20260503110403 16 228 1.6 11.3 0.00 0.18 0.18 50 1021.3
20260503090405 12 265 1.6 11.3 0.00 0.18 0.18 63 1022.1
20260503081405 15 20 1.6 4.8 0.00 0.18 0.18 52 1022.0
20260503080905 15 8 1.6 4.8 0.00 0.18 0.18 52 1022.0
20260503080404 15 353 1.6 4.8 0.00 0.18 0.18 51 1021.9
20260503072907 11 261 0.0 4.8 0.00 0.18 0.18 62 1022.0
20260503072406 11 280 1.6 9.7 0.00 0.18 0.18 62 1022.0
20260503071904 11 15 0.0 9.7 0.00 0.18 0.18 64 1022.0
20260503071403 11 23 4.8 11.3 0.00 0.18 0.18 62 1022.0
20260503070905 11 16 3.2 11.3 0.00 0.18 0.18 61 1022.0
20260503070404 11 20 3.2 9.7 0.00 0.18 0.18 61 1021.9
20260503054906 9 241 0.0 3.2 0.00 0.18 0.18 84 1021.5
20260503054404 8 233 0.0 4.8 0.00 0.18 0.18 84 1021.6
20260503053906 8 233 1.6 4.8 0.00 0.18 0.18 85 1021.6
20260503053403 8 256 1.6 4.8 0.00 0.18 0.18 85 1021.6
20260503052905 8 224 0.0 3.2 0.00 0.18 0.18 85 1021.6
20260503051904 8 325 0.0 4.8 0.03 0.18 0.18 85 1021.5
20260503051404 8 305 0.0 4.8 0.08 0.18 0.18 85 1021.4
20260503050905 8 36 0.0 1.6 0.10 0.18 0.18 85 1021.2
20260503045905 8 36 0.0 1.6 0.10 0.18 0.18 85 1021.2
20260503045403 8 36 0.0 1.6 0.10 0.18 0.18 84 1021.1
20260503044404 8 29 0.0 1.6 0.10 0.18 0.18 84 1021.0
20260503043905 8 32 0.0 1.6 0.10 0.18 0.18 84 1021.0
20260503043405 8 6 0.0 1.6 0.10 0.18 0.18 83 1020.9
20260503042905 9 5 0.0 1.6 0.10 0.18 0.18 81 1020.9
20260503042404 9 30 0.0 3.2 0.10 0.18 0.18 81 1021.0
20260503041904 9 30 0.0 4.8 0.08 0.15 0.15 79 1020.9
20260503041403 9 345 1.6 4.8 0.03 0.10 0.10 78 1020.8
20260503040903 8 7 0.0 3.2 0.00 0.08 0.08 81 1020.8
20260503035906 8 25 0.0 3.2 0.00 0.08 0.08 80 1020.7
20260503035405 8 29 1.6 3.2 0.00 0.08 0.08 78 1020.7
20260503034903 8 354 0.0 1.6 0.00 0.08 0.08 78 1020.5
20260503034403 8 294 0.0 9.7 0.00 0.08 0.08 77 1020.4
20260503033904 8 24 1.6 9.7 0.00 0.08 0.08 76 1020.3
20260503033405 8 50 3.2 9.7 0.00 0.08 0.08 75 1020.3
20260503032904 8 31 3.2 8.0 0.00 0.08 0.08 75 1020.3
20260503032404 8 32 1.6 4.8 0.00 0.08 0.08 75 1020.2
20260503031905 8 39 1.6 9.7 0.00 0.08 0.08 75 1020.2
20260503031403 8 42 1.6 16.1 0.00 0.08 0.08 75 1020.2
20260503030403 8 45 6.4 11.3 0.00 0.08 0.08 77 1020.3
20260503025904 8 34 3.2 8.0 0.00 0.08 0.08 78 1020.2
20260503024405 8 47 1.6 9.7 0.00 0.08 0.08 77 1020.6
20260503023904 8 25 3.2 8.0 0.00 0.08 0.08 77 1020.6
20260503023405 8 39 0.0 4.8 0.00 0.08 0.08 78 1020.6
20260503022904 7 44 1.6 4.8 0.00 0.08 0.08 79 1020.6
20260503022404 7 24 1.6 4.8 0.00 0.08 0.08 81 1020.6
20260503021904 7 37 3.2 4.8 0.00 0.08 0.08 82 1020.5